Regional Weather Roundup
Issued by NWS

Home | Current Version | Previous Version | Text Only | Print | Product List | Glossary Off
Versions: 1 2 3 4 5 6 7 8 9 10 11 12 13 14 15 16 17 18 19 20 21 22 23 24 25 26 27 28 29 30 31 32 33 34 35 36 37 38 39 40 41 42 43 44 45 46 47 48 49 50

000
ASUS45 KABQ 010310
RWRNM
WEATHER ROUNDUP FOR NEW MEXICO
NATIONAL WEATHER SERVICE ALBUQUERQUE NM
900 PM MDT TUE SEP 30 2014

NOTE: "FAIR" MEANS FEW OR NO CLOUDS BELOW 12,000 FEET AGL WITH NO
       SIGNIFICANT WEATHER OR OBSTRUCTIONS TO VISION.

      THIS PRODUCT IS RELEASED AS TWO VERSIONS.  ONE VERSION NEAR
      THE TOP OF THE HOUR CONTAINING PRELIMINARY DATA FROM ALBUQUERQUE
      AND OTHER STATIONS.  A FINAL VERSION WITH ADDITIONAL DATA IS
      ISSUED ABOUT 10 MINUTES AFTER THE HOUR.

NMZ501-503-504-510>518-010400-
NORTHWEST PLATEAU/NORTHCENTRAL MOUNTAINS

CITY           SKY/WX    TMP DP  RH WIND       PRES   REMARKS
FARMINGTON     CLEAR     53  42  66 NE3       29.97R
LOS ALAMOS     CLEAR     56  31  39 W3        30.07R
SANTA FE       CLEAR     56  30  37 N13       29.99R
TAOS           CLEAR     45  30  57 CALM      30.06R
ANGEL FIRE     FAIR      47  29  50 W12       30.08S

$$
NMZ402-403-502-505>509-010400-
WESTCENTRAL MOUNTAINS/SOUTHWEST MOUNTAINS

CITY           SKY/WX    TMP DP  RH WIND       PRES   REMARKS
GALLUP         CLEAR     54  39  57 SW3       30.03R
GRANTS         CLEAR     55  34  44 W10       30.04S
SILVER CITY    CLEAR     59  32  36 NW10      30.01R

$$
NMZ407-409-411-412-010400-
SOUTHERN DESERTS

CITY           SKY/WX    TMP DP  RH WIND       PRES   REMARKS
LORDSBURG      FAIR      63  36  36 MISG      29.93R
DEMING         CLEAR     67  33  28 NW7       29.92R
LAS CRUCES     CLEAR     69  32  25 W7        29.93R
HOLLOMAN AFB   PTCLDY    68  36  30 S3        29.87R
ALAMOGORDO     PTCLDY    66  41  39 S7        29.90R
T OR C         CLEAR     69  36  29 W9        29.90R

$$
NMZ519>523-010400-
CENTRAL VALLEYS/CENTRAL HIGHLANDS

CITY           SKY/WX    TMP DP  RH WIND       PRES   REMARKS
ALBUQUERQUE    CLEAR     67  31  26 N9        29.95R
DOUBLE EAGLE   CLEAR     55  30  38 NW7       29.99R
MORIARTY ARPT  FAIR      53  32  44 W7        30.01R
CLINES CORNERS CLEAR     52  31  44 NW13      30.01R
BELEN          NOT AVBL
SOCORRO        FAIR      64  41  44 W9        29.91R

$$
NMZ524>526-539-540-010400-
SOUTHCENTRAL MOUNTAINS

CITY           SKY/WX    TMP DP  RH WIND       PRES   REMARKS
RUIDOSO        NOT AVBL

$$
NMZ527>531-010400-
NORTHEAST HIGHLANDS/NORTHEAST PLAINS

CITY           SKY/WX    TMP DP  RH WIND       PRES   REMARKS
LAS VEGAS      CLEAR     51  35  54 W13       29.99R
RATON          CLEAR     60  32  34 W7        29.92R
CLAYTON        PTCLDY    61  41  47 SW8       29.82S

$$
NMZ532>537-010400-
EASTCENTRAL PLAINS

CITY           SKY/WX    TMP DP  RH WIND       PRES   REMARKS
TUCUMCARI      CLEAR     64  40  41 SW6       29.80R
CANNON AFB     CLEAR     64  47  52 W9        29.86R
CLOVIS AIRPORT   N/A     61  46  59 W7        29.88R

$$
NMZ028-029-538-010400-
SOUTHEAST PLAINS

CITY           SKY/WX    TMP DP  RH WIND       PRES   REMARKS
ROSWELL        CLEAR     66  46  48 W8        29.83R
CARLSBAD       CLEAR     70  54  56 W9        29.82R
HOBBS          CLEAR     72  52  49 CALM      29.85R


$$


USA.gov is the U.S. government's official web portal to all federal, state and local government web resources and services.